Weather History for Sault Ste Marie, MI

Change the Weather History Date:

Friday, March 30, 2012

  Actual Average Record
Temperature  
Mean Temperature 30 °F 32 °F  
Max Temperature 32 °F 41 °F 63 °F (1910)
Min Temperature 28 °F 24 °F 0 °F (1923)
Degree Days  
Heating Degree Days 35 33  
Month to date heating degree days 813 1168  
Since 1 July heating degree days 5971 7294  
Cooling Degree Days 0 0  
Month to date cooling degree days 2 0  
Year to date cooling degree days 2 0  
Moisture  
Dew Point 22 °F    
Average Humidity 64    
Maximum Humidity 78    
Minimum Humidity 49    
Precipitation  
Precipitation 0.04 in 0.08 in 0.94 in (1976)
Month to date precipitation 2.50 1.88  
Year to date precipitation 6.45 5.41  
Snow  
Snow 0.20 in 0.30 in 3.80 in (1988)
Month to date snowfall 9.7 13.1  
Since 1 July snowfall 80.3 113.3  
Snow Depth 0.00 in    
Sea Level Pressure  
Sea Level Pressure 30.07 in    
Wind  
Wind Speed 8 mph (East)    
Max Wind Speed 18 mph    
Max Gust Speed 29 mph    
Visibility 7 miles    
Events Snow    
T = Trace of Precipitation, MM = Missing Value Source: NWS Daily Summary

Daily Weather History Graph

Daily Weather History Graph

Search for Another Location

Airport:

Trip Planner

Search our weather history database for the weather conditions in past years. The results will help you decide how hot, cold, wet, or windy it might be!

Date:

Astronomy

Mar. 30, 2012 Rise Set
Actual Time 7:19 AM EDT 8:04 PM EDT
Civil Twilight 6:49 AM EDT 8:34 PM EDT
Nautical Twilight 6:13 AM EDT 9:11 PM EDT
Astronomical Twilight 5:35 AM EDT 9:49 PM EDT
Moon 12:08 PM EDT (3/30) 2:56 AM EDT (3/30)
Length of Visible Light 13h 45m
Length of Day
12h 44m
Waxing Crescent, 49% of the Moon is Illuminated
Mar 30
Waxing Crescent
Mar 30
First Quarter
Apr 6
Full
Apr 13
Last Quarter
Apr 21
New

Hourly Weather History & Observations

Time (EDT) Temp. Windchill Dew Point Humidity Pressure Visibility Wind Dir Wind Speed Gust Speed Precip Events Conditions
12:55 AM 30.0 °F 25.2 °F 23.0 °F 75% 30.16 in 10.0 mi SE 4.6 mph - N/A   Clear
1:55 AM 30.0 °F 26.5 °F 23.0 °F 75% 30.15 in 10.0 mi East 3.5 mph - N/A   Clear
2:55 AM 30.0 °F 24.1 °F 19.9 °F 66% 30.12 in 10.0 mi East 5.8 mph - N/A   Clear
3:55 AM 30.9 °F 26.2 °F 18.0 °F 59% 30.11 in 10.0 mi East 4.6 mph - N/A   Clear
4:55 AM 30.9 °F 24.3 °F 18.0 °F 59% 30.08 in 10.0 mi East 6.9 mph - N/A   Overcast
5:55 AM 32.0 °F 24.8 °F 16.0 °F 52% 30.11 in 10.0 mi ESE 8.1 mph 19.6 mph N/A   Overcast
6:55 AM 32.0 °F 25.6 °F 16.0 °F 52% 30.14 in 10.0 mi ENE 6.9 mph - N/A   Overcast
7:55 AM 32.0 °F 24.2 °F 16.0 °F 52% 30.16 in 10.0 mi East 9.2 mph - N/A   Overcast
8:38 AM 30.9 °F 22.2 °F 17.1 °F 57% 30.12 in 5.0 mi East 10.4 mph - 0.00 in Snow Light Snow
8:45 AM 30.0 °F 20.5 °F 19.0 °F 64% 30.12 in 1.8 mi East 11.5 mph 17.3 mph 0.00 in Snow Light Snow
8:55 AM 28.0 °F 20.8 °F 21.0 °F 75% 30.13 in 0.8 mi East 6.9 mph 19.6 mph 0.01 in Snow Light Snow
9:02 AM 28.0 °F 18.6 °F 21.9 °F 78% 30.10 in 0.5 mi East 10.4 mph - 0.00 in Snow Snow
9:19 AM 28.0 °F 20.0 °F 23.0 °F 81% 30.10 in 2.0 mi East 8.1 mph - 0.01 in Snow Light Snow
9:27 AM 28.0 °F 20.0 °F 23.0 °F 81% 30.10 in 6.0 mi East 8.1 mph - 0.01 in Snow Light Snow
9:34 AM 28.0 °F 18.6 °F 23.0 °F 81% 30.10 in 9.0 mi ESE 10.4 mph 18.4 mph 0.01 in   Overcast
9:55 AM 28.0 °F 18.6 °F 23.0 °F 81% 30.11 in 10.0 mi ESE 10.4 mph - 0.01 in   Overcast
10:55 AM 30.0 °F 20.0 °F 21.0 °F 69% 30.09 in 10.0 mi ESE 12.7 mph - N/A   Overcast
11:55 AM 30.9 °F 20.7 °F 21.0 °F 67% 30.08 in 10.0 mi ESE 13.8 mph 21.9 mph N/A   Overcast
12:55 PM 32.0 °F 23.6 °F 19.0 °F 59% 30.06 in 10.0 mi ESE 10.4 mph 21.9 mph N/A   Overcast
1:55 PM 30.9 °F 19.8 °F 21.0 °F 67% 30.05 in 10.0 mi SE 16.1 mph 25.3 mph 0.00 in   Overcast
2:55 PM 30.0 °F 20.0 °F 23.0 °F 75% 30.04 in 10.0 mi ESE 12.7 mph 19.6 mph 0.00 in   Overcast
3:55 PM 30.0 °F 20.5 °F 23.0 °F 75% 30.02 in 5.0 mi East 11.5 mph 20.7 mph 0.00 in   Overcast
4:06 PM 30.0 °F 21.7 °F 23.0 °F 75% 30.00 in 6.0 mi East 9.2 mph 18.4 mph 0.00 in   Overcast
4:55 PM 30.9 °F 23.5 °F 21.9 °F 69% 30.04 in 10.0 mi East 8.1 mph - 0.00 in   Overcast
5:12 PM 30.9 °F 22.8 °F 21.9 °F 69% 30.01 in 10.0 mi East 9.2 mph - N/A   Overcast
5:22 PM 30.9 °F 22.8 °F 21.9 °F 69% 30.00 in 10.0 mi ESE 9.2 mph 17.3 mph N/A   Overcast
5:34 PM 30.9 °F 22.2 °F 21.9 °F 69% 30.01 in 10.0 mi East 10.4 mph 17.3 mph 0.00 in Snow Light Snow
5:55 PM 30.9 °F 22.2 °F 23.0 °F 72% 30.02 in 7.0 mi ENE 10.4 mph - 0.00 in Snow Light Snow
6:37 PM 30.0 °F 24.1 °F 23.0 °F 75% 30.02 in 2.0 mi East 5.8 mph - 0.01 in Snow Light Snow
6:44 PM 30.0 °F 23.2 °F 24.1 °F 79% 30.03 in 2.0 mi ENE 6.9 mph - 0.01 in Snow Light Snow
6:53 PM 30.2 °F 23.4 °F 24.8 °F 80% 30.03 in 1.8 mi ENE 6.9 mph - 0.01 in Snow Light Snow
6:55 PM 30.0 °F 23.2 °F 24.1 °F 79% 30.06 in 2.0 mi ENE 6.9 mph - 0.01 in Snow Light Snow
7:16 PM 30.0 °F 24.1 °F 24.1 °F 79% 30.03 in 4.0 mi ENE 5.8 mph - 0.00 in Snow Light Snow
7:55 PM 30.0 °F 25.2 °F 25.0 °F 82% 30.06 in 4.0 mi East 4.6 mph - 0.00 in Snow Light Snow
8:55 PM 28.9 °F 22.8 °F 25.0 °F 85% 30.06 in 9.0 mi East 5.8 mph - 0.01 in   Overcast
9:55 PM 30.0 °F 25.2 °F 25.0 °F 82% 30.08 in 10.0 mi East 4.6 mph - N/A   Overcast
10:55 PM 30.0 °F 25.2 °F 23.0 °F 75% 30.06 in 10.0 mi East 4.6 mph - N/A   Overcast
11:55 PM 30.0 °F 25.2 °F 23.0 °F 75% 30.06 in 10.0 mi East 4.6 mph - N/A   Overcast